VTK601 ULLI-URMM

Flight info

Callsign VTK601
Flight time 2h 54m
Altitude 35000
Route SUGIN1D SUGIN T873 TOKNU L4 LINRU T614 OSPER T828 NIBIM M54 LARIN LARIN5B
Aircraft MD11/H-SDE1E2E3FGHIJ2J3J4J5M1RWXY/LB1D1

Departure

Time 2026-04-14 12:23
Airport Pulkovo Airport (ULLI)

Arrival

Time 2026-04-14 15:18
Airport Mineralnye Vody Airport (URMM)
Time Latitude Longitude Altitude Speed Heading
2026-04-14 12:23 59.80525 29.95365 7038 ft 239 kts 198°
2026-04-14 12:23 59.78947 29.94316 7557 ft 239 kts 192°
2026-04-14 12:24 59.77337 29.93417 8028 ft 241 kts 189°
2026-04-14 12:24 59.75667 29.93025 8348 ft 247 kts 173°
2026-04-14 12:24 59.73976 29.93973 8479 ft 263 kts 147°
2026-04-14 12:24 59.72676 29.96507 9131 ft 266 kts 120°
2026-04-14 12:25 59.71936 29.99890 9851 ft 271 kts 108°
2026-04-14 12:25 59.71398 30.03439 10593 ft 276 kts 106°
2026-04-14 12:25 59.70857 30.07263 10787 ft 301 kts 106°
2026-04-14 12:25 59.70270 30.11424 10921 ft 326 kts 106°
2026-04-14 12:26 59.69754 30.15907 11326 ft 338 kts 98°
2026-04-14 12:26 59.69537 30.20574 12075 ft 343 kts 94°
2026-04-14 12:26 59.69438 30.25318 12805 ft 347 kts 92°
2026-04-14 12:26 59.69372 30.30131 13533 ft 351 kts 92°
2026-04-14 12:27 59.69179 30.34965 14240 ft 354 kts 99°
2026-04-14 12:27 59.68771 30.39804 14904 ft 357 kts 101°
2026-04-14 12:27 59.68278 30.44638 15559 ft 360 kts 103°
2026-04-14 12:27 59.67748 30.49498 16202 ft 363 kts 103°
2026-04-14 12:28 59.67210 30.54400 16864 ft 366 kts 103°
2026-04-14 12:28 59.66671 30.59348 17525 ft 369 kts 103°
2026-04-14 12:28 59.66135 30.64336 18179 ft 373 kts 103°
2026-04-14 12:28 59.65613 30.69386 18810 ft 376 kts 102°
2026-04-14 12:29 59.65152 30.74503 19371 ft 380 kts 101°
2026-04-14 12:29 59.64717 30.79678 19932 ft 383 kts 102°
2026-04-14 12:29 59.64289 30.84888 20434 ft 386 kts 103°
2026-04-14 12:29 59.63858 30.90163 20969 ft 390 kts 103°
2026-04-14 12:30 59.63423 30.95476 21502 ft 393 kts 104°
2026-04-14 12:30 59.62980 31.00827 22054 ft 396 kts 105°
2026-04-14 12:30 59.62535 31.06217 22608 ft 399 kts 105°
2026-04-14 12:30 59.62087 31.11641 23085 ft 401 kts 105°
2026-04-14 12:31 59.61622 31.17098 23555 ft 405 kts 105°
2026-04-14 12:31 59.61155 31.22600 24063 ft 408 kts 106°
2026-04-14 12:31 59.60680 31.28137 24495 ft 410 kts 106°
2026-04-14 12:31 59.60201 31.33707 24933 ft 413 kts 106°
2026-04-14 12:32 59.59717 31.39312 25377 ft 416 kts 106°
2026-04-14 12:32 59.59227 31.44955 25800 ft 418 kts 107°
2026-04-14 12:32 59.58733 31.50633 26166 ft 421 kts 107°
2026-04-14 12:32 59.58232 31.56348 26570 ft 424 kts 107°
2026-04-14 12:33 59.57726 31.62100 26973 ft 427 kts 107°
2026-04-14 12:33 59.57214 31.67880 27354 ft 430 kts 107°
2026-04-14 12:33 59.56696 31.73713 27751 ft 433 kts 107°
2026-04-14 12:33 59.56171 31.79574 28128 ft 435 kts 107°
2026-04-14 12:34 59.55642 31.85466 28510 ft 438 kts 107°
2026-04-14 12:34 59.55106 31.91388 28890 ft 440 kts 107°
2026-04-14 12:34 59.54565 31.97348 29259 ft 443 kts 107°
2026-04-14 12:34 59.53919 32.03269 29608 ft 441 kts 112°
2026-04-14 12:35 59.52927 32.08958 29953 ft 436 kts 120°
2026-04-14 12:35 59.51462 32.14121 30304 ft 429 kts 131°
2026-04-14 12:35 59.49576 32.18639 30547 ft 427 kts 137°
2026-04-14 12:35 59.47476 32.22791 30813 ft 428 kts 140°
2026-04-14 12:36 59.45309 32.26822 31122 ft 430 kts 141°
2026-04-14 12:36 59.43133 32.30856 31464 ft 431 kts 140°
2026-04-14 12:36 59.40963 32.34933 31821 ft 432 kts 140°
2026-04-14 12:36 59.38809 32.39044 32160 ft 433 kts 140°
2026-04-14 12:37 59.36661 32.43186 32495 ft 433 kts 139°
2026-04-14 12:37 59.34514 32.47345 32854 ft 434 kts 139°
2026-04-14 12:37 59.32367 32.51508 33159 ft 435 kts 139°
2026-04-14 12:37 59.30215 32.55678 33460 ft 436 kts 139°
2026-04-14 12:38 59.25936 32.63949 34084 ft 435 kts 139°
2026-04-14 12:38 59.23782 32.68099 34383 ft 435 kts 139°
2026-04-14 12:38 59.21623 32.72247 34618 ft 436 kts 139°
2026-04-14 12:39 59.19428 32.76457 34808 ft 437 kts 139°
2026-04-14 12:39 59.17255 32.80616 35000 ft 438 kts 139°
2026-04-14 12:39 59.15078 32.84779 35197 ft 439 kts 139°
2026-04-14 12:39 59.12892 32.88950 35355 ft 441 kts 139°
2026-04-14 12:40 59.10688 32.93144 35400 ft 445 kts 139°
2026-04-14 12:40 59.06245 33.01578 35405 ft 445 kts 139°
2026-04-14 12:41 59.01816 33.09955 35407 ft 444 kts 139°
2026-04-14 12:41 58.97384 33.18299 35398 ft 444 kts 139°
2026-04-14 12:42 58.92947 33.26628 35401 ft 444 kts 139°
2026-04-14 12:42 58.88477 33.34875 35400 ft 444 kts 139°
2026-04-14 12:43 58.84040 33.43064 35398 ft 444 kts 139°
2026-04-14 12:43 58.79567 33.51350 35387 ft 441 kts 139°
2026-04-14 12:44 58.75171 33.59470 35390 ft 441 kts 139°
2026-04-14 12:44 58.70736 33.67636 35388 ft 441 kts 139°
2026-04-14 12:45 58.64801 33.78524 35382 ft 441 kts 139°
2026-04-14 12:45 58.60357 33.86636 35367 ft 441 kts 139°
2026-04-14 12:46 58.55914 33.94718 35373 ft 439 kts 139°
2026-04-14 12:46 58.51480 34.02756 35373 ft 439 kts 139°
2026-04-14 12:47 58.47038 34.10779 35368 ft 439 kts 140°
2026-04-14 12:47 58.42592 34.18774 35368 ft 439 kts 140°
2026-04-14 12:48 58.38138 34.26761 35368 ft 439 kts 140°
2026-04-14 12:48 58.33690 34.34708 35361 ft 438 kts 139°
2026-04-14 12:49 58.29226 34.42575 35361 ft 437 kts 140°
2026-04-14 12:49 58.24756 34.50409 35358 ft 437 kts 140°
2026-04-14 12:50 58.17494 34.60597 35346 ft 432 kts 156°
2026-04-14 12:51 58.11949 34.65017 35345 ft 433 kts 159°
2026-04-14 12:51 58.06360 34.69299 35341 ft 434 kts 158°
2026-04-14 12:52 58.00799 34.73709 35365 ft 434 kts 158°
2026-04-14 12:52 57.95243 34.78180 35343 ft 434 kts 158°
2026-04-14 12:53 57.89698 34.82645 35332 ft 434 kts 158°
2026-04-14 12:53 57.84145 34.87102 35334 ft 434 kts 158°
2026-04-14 12:54 57.78591 34.91539 35332 ft 435 kts 157°
2026-04-14 12:54 57.73012 34.95980 35332 ft 436 kts 157°
2026-04-14 12:55 57.67563 35.00962 35329 ft 437 kts 152°
2026-04-14 12:55 57.62309 35.06669 35329 ft 437 kts 150°
2026-04-14 12:56 57.57116 35.12404 35321 ft 437 kts 150°
2026-04-14 12:56 57.51867 35.18119 35303 ft 437 kts 150°
2026-04-14 12:57 57.46600 35.23802 35307 ft 439 kts 150°
2026-04-14 12:57 57.41313 35.29480 35318 ft 439 kts 150°
2026-04-14 12:58 57.36024 35.35144 35311 ft 439 kts 150°
2026-04-14 12:58 57.30736 35.40783 35309 ft 439 kts 150°
2026-04-14 12:59 57.25445 35.46411 35301 ft 439 kts 150°
2026-04-14 12:59 57.20135 35.52041 35292 ft 441 kts 150°
2026-04-14 13:00 57.14802 35.57676 35296 ft 442 kts 150°
2026-04-14 13:00 57.09465 35.63294 35288 ft 442 kts 150°
2026-04-14 13:01 57.04129 35.68892 35285 ft 442 kts 150°
2026-04-14 13:01 56.98781 35.74481 35279 ft 442 kts 150°
2026-04-14 13:02 56.93417 35.80010 35271 ft 443 kts 150°
2026-04-14 13:02 56.88030 35.85570 35261 ft 445 kts 150°
2026-04-14 13:03 56.82642 35.91140 35272 ft 444 kts 150°
2026-04-14 13:03 56.77262 35.96690 35260 ft 444 kts 150°
2026-04-14 13:04 56.71872 36.02228 35265 ft 444 kts 150°
2026-04-14 13:04 56.66482 36.07736 35246 ft 445 kts 150°
2026-04-14 13:05 56.61067 36.13267 35248 ft 447 kts 150°
2026-04-14 13:05 56.55647 36.18790 35246 ft 446 kts 150°
2026-04-14 13:06 56.50232 36.24287 35251 ft 446 kts 150°
2026-04-14 13:06 56.44817 36.29765 35241 ft 446 kts 150°
2026-04-14 13:07 56.39400 36.35231 35238 ft 446 kts 150°
2026-04-14 13:07 56.34423 36.41800 35224 ft 445 kts 133°
2026-04-14 13:08 56.30623 36.50604 35223 ft 446 kts 126°
2026-04-14 13:08 56.27054 36.59768 35223 ft 447 kts 126°
2026-04-14 13:09 56.23391 36.68768 35230 ft 446 kts 127°
2026-04-14 13:09 56.19658 36.77684 35208 ft 447 kts 127°
2026-04-14 13:10 56.15895 36.86582 35215 ft 447 kts 127°
2026-04-14 13:10 56.12134 36.95455 35205 ft 446 kts 127°
2026-04-14 13:11 56.08369 37.04303 35206 ft 447 kts 127°
2026-04-14 13:11 56.04608 37.13171 35205 ft 447 kts 127°
2026-04-14 13:12 56.00868 37.22057 35210 ft 447 kts 127°
2026-04-14 13:12 55.96959 37.30712 35213 ft 448 kts 135°
2026-04-14 13:13 55.92001 37.37436 35209 ft 449 kts 146°
2026-04-14 13:13 55.86729 37.43418 35209 ft 449 kts 146°
2026-04-14 13:14 55.81483 37.49474 35197 ft 449 kts 145°
2026-04-14 13:14 55.76264 37.55636 35166 ft 451 kts 144°
2026-04-14 13:15 55.71051 37.61814 35167 ft 451 kts 144°
2026-04-14 13:15 55.65806 37.67936 35164 ft 451 kts 147°
2026-04-14 13:16 55.60329 37.73391 35159 ft 452 kts 150°
2026-04-14 13:16 55.54768 37.78589 35157 ft 452 kts 150°
2026-04-14 13:17 55.49211 37.83799 35128 ft 452 kts 150°
2026-04-14 13:17 55.43658 37.89034 35128 ft 453 kts 149°
2026-04-14 13:18 55.37963 37.93742 35130 ft 455 kts 161°
2026-04-14 13:18 55.31745 37.96010 35131 ft 458 kts 169°
2026-04-14 13:19 55.25429 37.97611 35148 ft 459 kts 169°
2026-04-14 13:19 55.19105 37.99339 35133 ft 460 kts 168°
2026-04-14 13:20 55.12789 38.01181 35130 ft 460 kts 168°
2026-04-14 13:20 55.06477 38.03052 35117 ft 460 kts 168°
2026-04-14 13:21 55.00167 38.04913 35125 ft 460 kts 167°
2026-04-14 13:21 54.93859 38.06770 35113 ft 460 kts 168°
2026-04-14 13:22 54.87544 38.08624 35120 ft 460 kts 167°
2026-04-14 13:22 54.81252 38.10464 35103 ft 463 kts 167°
2026-04-14 13:23 54.74862 38.12325 35102 ft 463 kts 167°
2026-04-14 13:23 54.68551 38.14141 35099 ft 463 kts 168°
2026-04-14 13:24 54.62200 38.15961 35093 ft 463 kts 168°
2026-04-14 13:24 54.52681 38.18696 35095 ft 462 kts 167°
2026-04-14 13:25 54.46316 38.20526 35084 ft 465 kts 167°
2026-04-14 13:26 54.33592 38.24520 35076 ft 462 kts 159°
2026-04-14 13:26 54.28640 38.27868 35065 ft 460 kts 153°
2026-04-14 13:27 54.22850 38.32521 35074 ft 460 kts 152°
2026-04-14 13:27 54.17054 38.37118 35051 ft 459 kts 153°
2026-04-14 13:28 54.11238 38.41594 35057 ft 459 kts 153°
2026-04-14 13:28 54.05365 38.46061 35043 ft 464 kts 153°
2026-04-14 13:29 53.99464 38.50527 35042 ft 464 kts 153°
2026-04-14 13:29 53.93565 38.54981 35041 ft 464 kts 153°
2026-04-14 13:30 53.87667 38.59420 35035 ft 463 kts 153°
2026-04-14 13:30 53.81775 38.63844 35024 ft 463 kts 153°
2026-04-14 13:31 53.75881 38.68256 35020 ft 463 kts 153°
2026-04-14 13:31 53.69978 38.72660 35015 ft 464 kts 153°
2026-04-14 13:32 53.64065 38.77058 35015 ft 467 kts 154°
2026-04-14 13:32 53.58097 38.81482 35002 ft 469 kts 154°
2026-04-14 13:33 53.52117 38.85861 35001 ft 469 kts 154°
2026-04-14 13:33 53.46132 38.90244 35006 ft 469 kts 154°
2026-04-14 13:34 53.37122 38.96664 34995 ft 468 kts 155°
2026-04-14 13:35 53.31119 39.00857 34993 ft 467 kts 155°
2026-04-14 13:35 53.25118 39.05043 34985 ft 467 kts 155°
2026-04-14 13:36 53.19096 39.09240 34988 ft 472 kts 155°
2026-04-14 13:36 53.13015 39.13464 34985 ft 473 kts 155°
2026-04-14 13:37 53.06942 39.17669 34959 ft 472 kts 155°
2026-04-14 13:37 53.00882 39.21852 34967 ft 471 kts 155°
2026-04-14 13:38 52.94820 39.26024 34951 ft 472 kts 155°
2026-04-14 13:38 52.88757 39.30184 34954 ft 472 kts 155°
2026-04-14 13:39 52.82693 39.34331 34946 ft 472 kts 155°
2026-04-14 13:39 52.76636 39.38463 34947 ft 473 kts 155°
2026-04-14 13:40 52.70528 39.42617 34940 ft 475 kts 155°
2026-04-14 13:40 52.64405 39.46746 34938 ft 475 kts 155°
2026-04-14 13:41 52.58286 39.50848 34949 ft 475 kts 155°
2026-04-14 13:41 52.52176 39.54956 34932 ft 473 kts 155°
2026-04-14 13:42 52.46082 39.59049 34923 ft 473 kts 155°
2026-04-14 13:42 52.40064 39.63415 34914 ft 472 kts 152°
2026-04-14 13:43 52.34222 39.68228 34910 ft 475 kts 150°
2026-04-14 13:43 52.28309 39.73166 34905 ft 477 kts 151°
2026-04-14 13:44 52.22397 39.78048 34903 ft 476 kts 151°
2026-04-14 13:44 52.16482 39.82890 34902 ft 476 kts 151°
2026-04-14 13:45 52.10560 39.87717 34897 ft 476 kts 151°
2026-04-14 13:45 52.04640 39.92536 34897 ft 476 kts 151°
2026-04-14 13:46 51.98730 39.97320 34890 ft 473 kts 152°
2026-04-14 13:46 51.92831 40.02084 34886 ft 474 kts 151°
2026-04-14 13:47 51.86920 40.06861 34885 ft 477 kts 151°
2026-04-14 13:47 51.80950 40.11677 34891 ft 480 kts 152°
2026-04-14 13:48 51.74993 40.16473 34883 ft 477 kts 152°
2026-04-14 13:48 51.69178 40.21576 34882 ft 475 kts 147°
2026-04-14 13:49 51.63611 40.27323 34881 ft 475 kts 145°
2026-04-14 13:49 51.58077 40.33149 34881 ft 475 kts 145°
2026-04-14 13:50 51.52535 40.38885 34885 ft 472 kts 145°
2026-04-14 13:50 51.47006 40.44552 34879 ft 471 kts 145°
2026-04-14 13:51 51.41474 40.50206 34881 ft 472 kts 145°
2026-04-14 13:51 51.35947 40.55848 34880 ft 471 kts 146°
2026-04-14 13:52 51.30132 40.60685 34885 ft 474 kts 160°
2026-04-14 13:52 51.23641 40.62703 34881 ft 478 kts 171°
2026-04-14 13:53 51.17017 40.63865 34874 ft 479 kts 171°
2026-04-14 13:53 51.10418 40.65234 34870 ft 478 kts 169°
2026-04-14 13:54 51.03836 40.66786 34877 ft 478 kts 169°
2026-04-14 13:54 50.97238 40.68386 34875 ft 481 kts 169°
2026-04-14 13:55 50.90609 40.69980 34874 ft 482 kts 169°
2026-04-14 13:55 50.83985 40.71562 34874 ft 481 kts 169°
2026-04-14 13:56 50.77361 40.73137 34876 ft 481 kts 169°
2026-04-14 13:56 50.70737 40.74711 34884 ft 480 kts 169°
2026-04-14 13:57 50.64131 40.76277 34881 ft 482 kts 169°
2026-04-14 13:57 50.57719 40.79115 34871 ft 478 kts 152°
2026-04-14 13:58 50.52074 40.84559 34889 ft 476 kts 143°
2026-04-14 13:58 50.46611 40.90459 34881 ft 476 kts 144°
2026-04-14 13:59 50.41075 40.96115 34886 ft 473 kts 146°
2026-04-14 13:59 50.35499 41.01608 34885 ft 473 kts 146°
2026-04-14 14:00 50.29909 41.07064 34890 ft 474 kts 146°
2026-04-14 14:00 50.24350 41.12476 34903 ft 474 kts 147°
2026-04-14 14:01 50.18716 41.17952 34903 ft 476 kts 147°
2026-04-14 14:01 50.13114 41.23384 34903 ft 477 kts 147°
2026-04-14 14:02 50.07467 41.28841 34908 ft 478 kts 147°
2026-04-14 14:02 50.01815 41.34292 34921 ft 477 kts 147°
2026-04-14 14:03 49.95925 41.38906 34913 ft 475 kts 161°
2026-04-14 14:03 49.89428 41.40929 34914 ft 478 kts 171°
2026-04-14 14:04 49.82821 41.42301 34925 ft 479 kts 170°
2026-04-14 14:04 49.76215 41.43865 34936 ft 483 kts 169°
2026-04-14 14:05 49.69592 41.45580 34932 ft 481 kts 169°
2026-04-14 14:05 49.63009 41.47316 34939 ft 479 kts 169°
2026-04-14 14:06 49.56427 41.49046 34943 ft 480 kts 169°
2026-04-14 14:06 49.49838 41.50769 34945 ft 480 kts 169°
2026-04-14 14:07 49.43256 41.52481 34949 ft 481 kts 169°
2026-04-14 14:07 49.36656 41.54191 34951 ft 480 kts 169°
2026-04-14 14:08 49.31186 41.55610 34957 ft 479 kts 169°
2026-04-14 14:08 49.24612 41.57313 34958 ft 480 kts 169°
2026-04-14 14:09 49.16952 41.59286 34971 ft 480 kts 169°
2026-04-14 14:09 49.11452 41.60690 34968 ft 477 kts 169°
2026-04-14 14:10 49.04859 41.62369 34977 ft 482 kts 169°
2026-04-14 14:10 48.98245 41.64056 34973 ft 482 kts 169°
2026-04-14 14:11 48.91635 41.65740 34985 ft 482 kts 169°
2026-04-14 14:11 48.85029 41.67421 34989 ft 480 kts 170°
2026-04-14 14:12 48.78448 41.69087 34991 ft 480 kts 170°
2026-04-14 14:12 48.71823 41.70761 34997 ft 484 kts 170°
2026-04-14 14:13 48.65222 41.72428 35003 ft 483 kts 170°
2026-04-14 14:13 48.58590 41.74095 35004 ft 483 kts 170°
2026-04-14 14:14 48.52000 41.75748 35007 ft 478 kts 170°
2026-04-14 14:14 48.45431 41.77393 35012 ft 481 kts 170°
2026-04-14 14:15 48.38772 41.79055 35013 ft 487 kts 170°
2026-04-14 14:15 48.32099 41.80789 35020 ft 486 kts 168°
2026-04-14 14:16 48.25510 41.83033 35028 ft 485 kts 166°
2026-04-14 14:16 48.18949 41.85453 35030 ft 486 kts 166°
2026-04-14 14:17 48.09033 41.89050 35031 ft 496 kts 166°
2026-04-14 14:17 48.02294 41.91459 35034 ft 495 kts 166°
2026-04-14 14:18 47.95706 41.93807 35041 ft 486 kts 166°
2026-04-14 14:18 47.89142 41.96143 35041 ft 485 kts 166°
2026-04-14 14:19 47.82562 41.98476 35052 ft 487 kts 166°
2026-04-14 14:19 47.75972 42.00797 35049 ft 485 kts 167°
2026-04-14 14:20 47.69447 42.03093 35060 ft 479 kts 167°
2026-04-14 14:20 47.62952 42.05377 35067 ft 481 kts 167°
2026-04-14 14:21 47.56437 42.07664 35067 ft 481 kts 167°
2026-04-14 14:21 47.49927 42.09943 35070 ft 480 kts 167°
2026-04-14 14:22 47.43414 42.12220 35084 ft 483 kts 167°
2026-04-14 14:22 47.36861 42.14504 35083 ft 484 kts 167°
2026-04-14 14:23 47.30317 42.16775 35083 ft 482 kts 167°
2026-04-14 14:23 47.23779 42.19040 35080 ft 482 kts 167°
2026-04-14 14:24 47.17261 42.21290 35089 ft 480 kts 167°
2026-04-14 14:24 47.10735 42.23540 35090 ft 484 kts 167°
2026-04-14 14:25 47.04167 42.25789 35091 ft 484 kts 168°
2026-04-14 14:25 46.98949 42.27272 35093 ft 484 kts 170°
2026-04-14 14:26 46.93915 42.28492 35094 ft 483 kts 171°
2026-04-14 14:26 46.87279 42.30055 35097 ft 484 kts 171°
2026-04-14 14:27 46.80624 42.31651 35104 ft 485 kts 171°
2026-04-14 14:27 46.73940 42.33272 35106 ft 489 kts 171°
2026-04-14 14:28 46.67245 42.35007 35108 ft 488 kts 168°
2026-04-14 14:28 46.60629 42.37107 35105 ft 486 kts 167°
2026-04-14 14:29 46.54067 42.39278 35115 ft 488 kts 167°
2026-04-14 14:29 46.47413 42.41454 35114 ft 492 kts 167°
2026-04-14 14:30 46.40727 42.43615 35122 ft 492 kts 167°
2026-04-14 14:30 46.34045 42.45760 35125 ft 492 kts 168°
2026-04-14 14:31 46.27370 42.47900 35127 ft 491 kts 167°
2026-04-14 14:31 46.20692 42.50038 35131 ft 491 kts 167°
2026-04-14 14:32 46.14003 42.52170 35130 ft 494 kts 168°
2026-04-14 14:32 46.07276 42.54282 35137 ft 494 kts 168°
2026-04-14 14:33 46.00537 42.56290 35140 ft 495 kts 168°
2026-04-14 14:33 45.94616 42.58035 35144 ft 494 kts 168°
2026-04-14 14:55 45.92013 42.58804 35157 ft 493 kts 168°
2026-04-14 14:56 45.81978 42.61769 35164 ft 498 kts 168°
2026-04-14 14:56 45.75198 42.63769 35028 ft 494 kts 168°
2026-04-14 14:57 45.71859 42.64756 34805 ft 487 kts 168°
2026-04-14 14:57 45.68536 42.65737 34433 ft 489 kts 168°
2026-04-14 14:57 45.65196 42.66717 33901 ft 492 kts 168°
2026-04-14 14:57 45.61845 42.67699 33299 ft 491 kts 168°
2026-04-14 14:58 45.58499 42.68680 32740 ft 493 kts 169°
2026-04-14 14:58 45.55126 42.69666 32187 ft 495 kts 169°
2026-04-14 14:58 45.51754 42.70651 31647 ft 494 kts 168°
2026-04-14 14:58 45.48393 42.71633 31099 ft 492 kts 168°
2026-04-14 14:59 45.45051 42.72652 30568 ft 490 kts 167°
2026-04-14 14:59 45.41731 42.73750 29964 ft 490 kts 166°
2026-04-14 14:59 45.38415 42.74897 29311 ft 491 kts 166°
2026-04-14 14:59 45.35106 42.76059 28710 ft 489 kts 166°
2026-04-14 15:00 45.31799 42.77224 28121 ft 488 kts 166°
2026-04-14 15:00 45.28518 42.78375 27549 ft 483 kts 166°
2026-04-14 15:00 45.25262 42.79508 26986 ft 480 kts 166°
2026-04-14 15:00 45.22024 42.80631 26418 ft 475 kts 166°
2026-04-14 15:01 45.18832 42.81735 25859 ft 471 kts 166°
2026-04-14 15:01 45.15655 42.82832 25301 ft 467 kts 166°
2026-04-14 15:01 45.12557 42.83900 24765 ft 463 kts 166°
2026-04-14 15:01 45.09440 42.84973 24210 ft 459 kts 166°
2026-04-14 15:02 45.06346 42.86036 23663 ft 456 kts 166°
2026-04-14 15:02 45.03281 42.87090 23046 ft 451 kts 166°
2026-04-14 15:02 45.00243 42.88133 22445 ft 447 kts 166°
2026-04-14 15:02 44.97231 42.89167 21849 ft 443 kts 167°
2026-04-14 15:03 44.94253 42.90188 21270 ft 438 kts 167°
2026-04-14 15:03 44.91318 42.91195 20703 ft 429 kts 167°
2026-04-14 15:03 44.88443 42.92184 20150 ft 422 kts 168°
2026-04-14 15:03 44.85611 42.93156 19605 ft 416 kts 168°
2026-04-14 15:04 44.82819 42.94111 19063 ft 409 kts 168°
2026-04-14 15:04 44.80077 42.95050 18539 ft 403 kts 168°
2026-04-14 15:04 44.77368 42.95976 17945 ft 397 kts 168°
2026-04-14 15:04 44.74704 42.96886 17408 ft 391 kts 168°
2026-04-14 15:05 44.72076 42.97783 16890 ft 386 kts 169°
2026-04-14 15:05 44.69475 42.98671 16371 ft 384 kts 169°
2026-04-14 15:05 44.66882 42.99557 15865 ft 383 kts 169°
2026-04-14 15:05 44.64299 43.00441 15346 ft 381 kts 169°
2026-04-14 15:06 44.61730 43.01322 14837 ft 379 kts 168°
2026-04-14 15:06 44.59220 43.02448 14326 ft 380 kts 161°
2026-04-14 15:06 44.56831 43.03931 13839 ft 380 kts 157°
2026-04-14 15:06 44.54461 43.05579 13313 ft 379 kts 155°
2026-04-14 15:07 44.52127 43.07254 12815 ft 377 kts 155°
2026-04-14 15:07 44.49793 43.08925 12336 ft 376 kts 155°
2026-04-14 15:07 44.47474 43.10577 11867 ft 373 kts 156°
2026-04-14 15:07 44.45199 43.12291 11429 ft 371 kts 149°
2026-04-14 15:08 44.43276 43.14703 11095 ft 374 kts 131°
2026-04-14 15:08 44.41792 43.17628 10951 ft 360 kts 123°
2026-04-14 15:08 44.40532 43.20553 10702 ft 343 kts 122°
2026-04-14 15:08 44.39367 43.23361 10520 ft 325 kts 121°
2026-04-14 15:09 44.38260 43.26018 10364 ft 308 kts 121°
2026-04-14 15:09 44.37191 43.28537 10139 ft 298 kts 122°
2026-04-14 15:09 44.36112 43.31034 9664 ft 301 kts 122°
2026-04-14 15:09 44.35028 43.33524 9181 ft 299 kts 122°
2026-04-14 15:10 44.33948 43.35988 8723 ft 296 kts 122°
2026-04-14 15:10 44.32877 43.38421 8276 ft 292 kts 122°
2026-04-14 15:10 44.31816 43.40828 7841 ft 290 kts 123°
2026-04-14 15:10 44.30688 43.43136 7400 ft 287 kts 133°
2026-04-14 15:11 44.29161 43.44850 7019 ft 279 kts 158°
2026-04-14 15:11 44.27316 43.45426 6647 ft 269 kts 187°
2026-04-14 15:11 44.25575 43.44802 6281 ft 260 kts 210°
2026-04-14 15:11 44.24012 43.43557 5936 ft 258 kts 216°
2026-04-14 15:12 44.22510 43.42205 5578 ft 257 kts 217°
2026-04-14 15:12 44.21012 43.40841 5235 ft 257 kts 217°
2026-04-14 15:12 44.19514 43.39488 4900 ft 257 kts 217°
2026-04-14 15:12 44.18014 43.38141 4558 ft 256 kts 217°
2026-04-14 15:13 44.16542 43.36825 4399 ft 246 kts 216°
2026-04-14 15:13 44.15121 43.35545 4370 ft 244 kts 219°
2026-04-14 15:13 44.13892 43.33961 4372 ft 239 kts 238°
2026-04-14 15:13 44.13215 43.31905 4376 ft 232 kts 262°
2026-04-14 15:14 44.13245 43.29702 4330 ft 229 kts 285°
2026-04-14 15:14 44.13868 43.27662 4032 ft 229 kts 299°
2026-04-14 15:14 44.14694 43.25770 3713 ft 228 kts 302°
2026-04-14 15:14 44.15537 43.23955 3435 ft 216 kts 302°
2026-04-14 15:15 44.16306 43.22294 3113 ft 191 kts 302°
2026-04-14 15:15 44.16989 43.20799 2854 ft 178 kts 301°
2026-04-14 15:15 44.17615 43.19422 2574 ft 156 kts 301°
2026-04-14 15:15 44.18178 43.18186 2394 ft 150 kts 302°
2026-04-14 15:16 44.18739 43.16957 2225 ft 150 kts 302°
2026-04-14 15:16 44.19295 43.15735 2013 ft 149 kts 302°
2026-04-14 15:16 44.19850 43.14512 1797 ft 150 kts 303°
2026-04-14 15:16 44.20412 43.13278 1596 ft 150 kts 301°
2026-04-14 15:17 44.20978 43.12047 1369 ft 152 kts 303°
2026-04-14 15:17 44.21546 43.10774 1170 ft 157 kts 304°
2026-04-14 15:17 44.22119 43.09536 1068 ft 137 kts 305°
2026-04-14 15:17 44.22552 43.08581 1061 ft 95 kts 303°
2026-04-14 15:18 44.22827 43.07981 1056 ft 47 kts 302°
2026-04-14 15:18 44.22965 43.07670 1058 ft 31 kts 296°
2026-04-14 15:18 44.23019 43.07417 1059 ft 26 kts 274°